DW5679 Weather Reports


Display with metric or nautical units.
time (UTC)temp
F
wind
direction
speed
MPH
gust
MPH
rain 1hr
in
rain 24hr
in
rain mn
in
humidity
%
barometer
mb
20260505213013 70 65 0.0 0.0 0.00 0.08 0.08 94 1005.5
20260505213002 70 35 0.0 0.0 0.00 0.08 0.08 95 1005.7
20260505211536 70 82 0.0 0.0 0.00 0.08 0.08 94 1005.5
20260505211502 70 52 0.0 0.0 0.00 0.08 0.08 95 1005.6
20260505210107 70 51 0.0 0.0 0.00 0.08 0.08 95 1006.0
20260505210028 70 81 0.0 0.0 0.00 0.08 0.08 94 1005.9
20260505204701 70 52 0.0 0.0 0.00 0.08 0.08 96 1006.2
20260505204524 70 82 0.0 0.0 0.00 0.08 0.08 95 1006.0
20260505203107 69 52 0.0 0.0 0.00 0.08 0.08 95 1006.2
20260505203022 69 81 0.0 0.0 0.00 0.08 0.08 95 1006.1
20260505201556 69 52 0.0 0.0 0.00 0.08 0.08 95 1006.5
20260505201520 69 82 0.0 0.0 0.00 0.08 0.08 95 1006.4
20260505200108 69 52 0.0 0.0 0.00 0.08 0.08 97 1006.2
20260505200019 69 82 0.0 0.0 0.00 0.08 0.08 96 1006.0
20260505194555 68 51 0.0 0.0 0.00 0.08 0.08 96 1006.1
20260505194512 68 82 0.0 0.0 0.00 0.08 0.08 96 1005.9
20260505193011 67 85 0.0 0.0 0.01 0.08 0.08 96 1006.1
20260505191521 67 46 0.0 0.0 0.01 0.08 0.08 96 1006.4
20260505191512 67 76 0.0 0.0 0.01 0.08 0.08 96 1006.3
20260505190045 67 54 0.0 0.0 0.01 0.08 0.08 96 1006.6
20260505190006 67 84 0.0 0.0 0.01 0.08 0.08 96 1006.4
20260505184527 67 28 0.0 0.0 0.01 0.08 0.08 96 1006.4
20260505184523 67 58 0.0 0.0 0.01 0.08 0.08 96 1006.4
20260505183033 67 28 0.0 0.0 0.01 0.07 0.07 96 1006.5
20260505183022 67 58 0.0 0.0 0.01 0.07 0.07 96 1006.3
20260505181525 67 41 0.0 0.0 0.01 0.07 0.07 96 1006.6
20260505181516 67 71 0.0 0.0 0.01 0.07 0.07 95 1006.6
20260505180024 67 41 0.0 0.0 0.01 0.07 0.07 96 1006.9
20260505180011 67 71 0.0 0.0 0.01 0.07 0.07 95 1006.8
20260505174525 67 41 0.0 0.0 0.02 0.07 0.07 95 1007.0
20260505174508 67 71 0.0 0.0 0.02 0.07 0.07 95 1006.9
20260505173022 67 41 0.0 0.0 0.01 0.06 0.06 96 1007.0
20260505173009 67 71 0.0 0.0 0.01 0.06 0.06 95 1007.0
20260505171533 67 71 0.0 0.0 0.02 0.06 0.06 95 1007.1
20260505171522 67 41 0.0 0.0 0.02 0.06 0.06 96 1007.2
20260505170029 66 41 0.0 0.0 0.02 0.06 0.06 96 1007.2
20260505170023 66 71 0.0 1.0 0.02 0.06 0.06 95 1007.1
20260505164521 66 42 0.0 1.0 0.01 0.05 0.05 96 1007.3
20260505163020 66 40 0.0 1.0 0.01 0.05 0.05 96 1007.5
20260505163015 66 70 0.0 1.0 0.01 0.05 0.05 95 1007.4
20260505161535 66 51 0.0 0.0 0.00 0.04 0.04 96 1007.3
20260505161514 66 81 0.0 0.0 0.00 0.04 0.04 95 1007.3
20260505153035 65 77 0.0 1.0 0.01 0.04 0.04 95 1007.4
20260505153018 65 47 0.0 1.0 0.01 0.04 0.04 96 1007.6
20260505151523 65 45 0.0 1.0 0.01 0.04 0.04 95 1007.6
20260505151517 65 14 0.0 1.0 0.01 0.04 0.04 96 1007.8
20260505140121 64 38 0.0 0.0 0.02 0.02 0.02 96 1007.9
20260505124541 64 37 0.0 0.0 0.00 0.00 0.00 94 1007.3
20260505124507 64 67 0.0 0.0 0.00 0.00 0.00 93 1007.2
20260505123035 64 37 0.0 0.0 0.00 0.00 0.00 93 1007.3
20260505123004 64 67 0.0 0.0 0.00 0.00 0.00 93 1007.3
20260505121538 64 37 0.0 0.0 0.00 0.00 0.00 92 1007.0
20260505121506 64 67 0.0 0.0 0.00 0.00 0.00 91 1007.0
20260505120033 64 37 0.0 0.0 0.00 0.00 0.00 90 1007.0
20260505120004 64 67 0.0 0.0 0.00 0.00 0.00 90 1006.9
20260505114533 65 46 0.0 1.0 0.00 0.00 0.00 89 1006.7
20260505114504 65 78 0.0 1.0 0.00 0.00 0.00 89 1006.5
20260505113033 65 60 0.0 1.0 0.00 0.00 0.00 87 1006.4
20260505113004 65 92 0.0 1.0 0.00 0.00 0.00 87 1006.2
20260505111530 66 51 0.0 2.0 0.00 0.00 0.00 85 1006.3
20260505111505 66 81 0.0 2.0 0.00 0.00 0.00 85 1006.1
20260505101531 66 138 0.0 1.0 0.00 0.00 0.00 82 1006.0
20260505101507 66 85 0.0 1.0 0.00 0.00 0.00 82 1005.8
20260505100056 66 89 0.0 1.0 0.00 0.00 0.00 82 1006.0
20260505100008 66 164 0.0 1.0 0.00 0.00 0.00 81 1005.9
20260505094623 67 12 0.0 1.0 0.00 0.00 0.00 81 1006.3
20260505094510 67 43 0.0 1.0 0.00 0.00 0.00 81 1006.0
20260505093058 67 64 0.0 3.0 0.00 0.00 0.00 80 1006.0
20260505093012 67 100 0.0 3.0 0.00 0.00 0.00 79 1005.7
20260505091604 67 55 0.0 0.0 0.00 0.00 0.00 79 1006.1
20260505091508 67 88 0.0 0.0 0.00 0.00 0.00 79 1005.9
20260505090058 67 20 0.0 1.0 0.00 0.00 0.00 80 1006.0
20260505090010 67 81 0.0 2.0 0.00 0.00 0.00 79 1005.8
20260505084555 67 23 0.0 1.0 0.00 0.00 0.00 79 1006.2
20260505084508 67 54 0.0 3.0 0.00 0.00 0.00 78 1005.9
20260505083058 67 129 0.0 2.0 0.00 0.00 0.00 78 1006.3
20260505083012 67 77 0.0 2.0 0.00 0.00 0.00 77 1006.1
20260505081556 67 72 0.0 0.0 0.00 0.00 0.00 77 1006.8
20260505081518 67 102 0.0 1.0 0.00 0.00 0.00 76 1006.6
20260505080050 67 51 0.0 1.0 0.00 0.00 0.00 76 1007.0
20260505080014 67 85 0.0 1.0 0.00 0.00 0.00 75 1006.8
20260505074545 67 56 0.0 1.0 0.00 0.00 0.00 76 1007.2
20260505074513 67 97 0.0 1.0 0.00 0.00 0.00 75 1007.1
20260505073044 67 40 0.0 1.0 0.00 0.00 0.00 75 1007.1
20260505073015 67 69 0.0 1.0 0.00 0.00 0.00 74 1007.0
20260505071547 67 212 0.0 2.0 0.00 0.00 0.00 73 1007.5
20260505071514 67 242 0.0 2.0 0.00 0.00 0.00 73 1007.2
20260505070040 67 100 0.0 2.0 0.00 0.00 0.00 74 1007.7
20260505070015 67 82 0.0 2.0 0.00 0.00 0.00 74 1007.4
20260505064540 67 74 0.0 1.0 0.00 0.00 0.00 74 1007.6
20260505064514 67 119 0.0 3.0 0.00 0.00 0.00 73 1007.4
20260505063034 66 119 0.0 2.0 0.00 0.00 0.00 74 1007.9
20260505063015 66 93 0.0 1.0 0.00 0.00 0.00 74 1007.7
20260505061533 65 36 0.0 0.0 0.00 0.00 0.00 75 1007.9
20260505061515 65 66 0.0 0.0 0.00 0.00 0.00 75 1007.8
20260505060035 65 49 0.0 0.0 0.00 0.00 0.00 74 1008.1
20260505060017 65 78 0.0 0.0 0.00 0.00 0.00 74 1007.8
20260505054535 64 79 0.0 0.0 0.00 0.00 0.00 74 1008.2
20260505054527 64 49 0.0 0.0 0.00 0.00 0.00 75 1008.5
20260505053026 64 49 0.0 0.0 0.00 0.00 0.00 75 1008.6
20260505053016 64 80 0.0 0.0 0.00 0.00 0.00 75 1008.2
20260505051524 64 49 0.0 0.0 0.00 0.00 0.00 75 1008.6
20260505051517 64 79 0.0 0.0 0.00 0.00 0.00 74 1008.2
20260505041521 66 79 0.0 0.0 0.00 0.00 0.00 71 1008.6
20260505041519 66 49 0.0 0.0 0.00 0.00 0.00 71 1009.0
20260505040022 66 49 0.0 0.0 0.00 0.00 0.00 71 1009.2
20260505034527 67 79 0.0 0.0 0.00 0.00 0.00 69 1008.8
20260505034518 67 50 0.0 0.0 0.00 0.00 0.00 69 1009.1
20260505033029 67 50 0.0 0.0 0.00 0.00 0.00 69 1009.4
20260505033020 67 79 0.0 0.0 0.00 0.00 0.00 68 1008.9
20260505031517 67 49 0.0 0.0 0.00 0.00 0.00 69 1009.4
20260505030118 68 49 0.0 0.0 0.00 0.00 0.00 70 1009.1
20260505030037 68 79 0.0 0.0 0.00 0.00 0.00 69 1008.8
20260505024521 68 78 0.0 0.0 0.00 0.00 0.00 69 1008.7
20260505024516 68 49 0.0 0.0 0.00 0.00 0.00 69 1009.0
20260505023020 68 78 0.0 0.0 0.00 0.00 0.00 69 1008.5
20260505023018 68 48 0.0 0.0 0.00 0.00 0.00 69 1008.7
20260505021525 68 79 0.0 0.0 0.00 0.00 0.00 69 1008.3
20260505021516 68 48 0.0 0.0 0.00 0.00 0.00 69 1008.7
20260505020021 69 79 0.0 0.0 0.00 0.00 0.00 68 1008.1
20260505020018 69 48 0.0 0.0 0.00 0.00 0.00 68 1008.3
20260505014524 69 48 0.0 0.0 0.00 0.00 0.00 67 1008.2
20260505013020 70 78 0.0 0.0 0.00 0.00 0.00 65 1007.9
20260505013013 70 48 0.0 0.0 0.00 0.00 0.00 66 1008.2
20260505011512 71 48 0.0 0.0 0.00 0.00 0.00 64 1007.8
20260505010012 72 78 0.0 0.0 0.00 0.00 0.00 62 1007.6
20260505004515 73 48 0.0 0.0 0.00 0.00 0.00 61 1008.0
20260505003026 74 79 0.0 0.0 0.00 0.00 0.00 57 1007.7
20260505003007 74 49 0.0 0.0 0.00 0.00 0.00 58 1007.9
20260505001525 75 48 0.0 0.0 0.00 0.00 0.00 57 1007.9
20260505001522 75 78 0.0 0.0 0.00 0.00 0.00 56 1007.8
20260505000022 75 81 0.0 1.0 0.00 0.00 0.00 56 1007.9
20260505000019 75 51 0.0 1.0 0.00 0.00 0.00 56 1008.1
20260504234602 76 33 0.0 1.0 0.00 0.00 0.00 56 1008.2
20260504234520 76 62 0.0 1.0 0.00 0.00 0.00 55 1008.0
20260504233105 76 29 0.0 1.0 0.00 0.00 0.00 55 1008.3
20260504233020 76 59 0.0 1.0 0.00 0.00 0.00 54 1008.0
20260504231601 76 14 0.0 1.0 0.00 0.00 0.00 53 1008.4
20260504231507 76 97 0.0 1.0 0.00 0.00 0.00 52 1008.2
20260504230111 77 180 0.0 1.0 0.00 0.00 0.00 54 1008.6
20260504230025 77 76 0.0 0.0 0.00 0.00 0.00 52 1008.5
20260504224546 77 51 0.0 1.0 0.00 0.00 0.00 53 1008.8
20260504224529 77 76 0.0 1.0 0.00 0.00 0.00 51 1008.6
20260504223039 77 47 0.0 4.0 0.00 0.00 0.00 51 1008.8
20260504223022 77 76 0.0 4.0 0.00 0.00 0.00 52 1008.8
20260504221539 77 48 0.0 3.0 0.00 0.00 0.00 52 1008.9
20260504221517 77 117 0.0 3.0 0.00 0.00 0.00 51 1008.8
20260504220037 77 60 0.0 3.0 0.00 0.00 0.00 50 1009.2
20260504220016 78 95 0.0 3.0 0.00 0.00 0.00 50 1009.0
20260504214535 78 358 0.0 2.0 0.00 0.00 0.00 50 1009.2
20260504214510 78 40 0.0 1.0 0.00 0.00 0.00 49 1009.3